Weather Roundup
Issued by NWS Chicago, IL

Home | Current Version | Previous Version | Text Only | Print | Product List | Glossary Off
Versions: 1 2 3 4 5 6 7 8 9 10 11 12 13 14 15 16 17 18 19 20 21 22 23 24 25 26 27 28 29 30 31 32 33 34 35 36 37 38 39 40 41 42 43 44 45 46 47 48 49 50

000
NZUS59 KLOT 311804
HRRLOT

CHICAGO AREA WEATHER ROUNDUP
NATIONAL WEATHER SERVICE CHICAGO/ROMEOVILLE IL
100 PM CDT WED AUG 31 2016

NOTE: "FAIR" INDICATES FEW OR NO CLOUDS BELOW 12,000 FEET WITH NO
SIGNIFICANT WEATHER AND/OR OBSTRUCTIONS TO VISIBILITY.

* THESE STATIONS ARE NOT UNDER NWS QUALITY CONTROL. THEY ALSO MAY NOT
  REPORT WEATHER SUCH AS PRECIPITATION OR FOG.

ILZ005-006-012>014-019>023-311900-
NORTHEAST ILLINOIS

CITY           SKY/WX    TMP DP  RH WIND       PRES   REMARKS
OHARE          PTSUNNY   76  61  59 NE16      30.08S
6HR MIN TEMP:  68; 6HR MAX TEMP:  76;

MIDWAY         CLOUDY    77  60  55 N15       30.07S
6HR MIN TEMP:  71; 6HR MAX TEMP:  77;

AURORA         MOSUNNY   78  64  61 N12       30.08F HX  80
6HR MIN TEMP:  69; 6HR MAX TEMP:  78;

LANSING*       MOSUNNY   74  65  73 N15       30.07S
JOLIET*        CLOUDY    79  65  63 NE8       30.06F HX  80
WAUKEGAN       MOSUNNY   73  61  65 NE10G18   30.09S
6HR MIN TEMP:  64; 6HR MAX TEMP:  74;

DUPAGE AIRPORT MOSUNNY   79  63  57 N13       30.08S HX  80
6HR MIN TEMP:  67; 6HR MAX TEMP:  79;

WHEELING       MOSUNNY   75  61  61 NE14      30.10S
6HR MIN TEMP:  67; 6HR MAX TEMP:  76;

KANKAKEE*      CLOUDY    79  68  70 N6        30.05F HX  81
MORRIS*        CLOUDY    78  66  67 CALM      30.05F
LEWIS AIRPORT* MOSUNNY   76  65  69 NE12      30.07S
NORTHERLY ISL    N/A     73  60  63 N14         N/A
$$

WIZ051-052-058>065-066-070>072-311900-
SOUTHEAST WISCONSIN

CITY           SKY/WX    TMP DP  RH WIND       PRES   REMARKS
MILWAUKEE      MOSUNNY   74  57  55 NE10      30.11S
6HR MIN TEMP:  66; 6HR MAX TEMP:  74;

KENOSHA*       MOSUNNY   74  59  59 N10       30.11S
RACINE*        SUNNY     73  60  63 N14       30.12S
WAUKESHA       MOSUNNY   73  54  49 N9        30.12F
$$

INZ001>003-010>013-019-020-311900-
NORTHWEST INDIANA

CITY           SKY/WX    TMP DP  RH WIND       PRES   REMARKS
GARY*          PTSUNNY   75  66  73 N17       30.07S
MICHIGAN CITY* NOT AVBL
RENSSELAER*    NOT AVBL
VALPARAISO     PTSUNNY   77  68  73 N13G20    30.04S
$$

LMZ740>746-311900-
SOUTHERN LAKE MICHIGAN

STATION/POSITION TIME  SKY/WX   TEMP WIND        PRES    VSBY
                                AIR  DIR/SP/G
                 (UTC)          (F)  (DEG/KT/KT) (MB)    (MI)
HARRISON CRIB    1700            72  350/ 20/ 23   N/A
BURNHAM HARBOR   1800            73  330/ 14/ 16   N/A
CALUMET HARBOR   1700            74  340/ 10/ 16 1017.7R
BURNS HARBOR     1706            72  360/ 15/ 18 1017.9S
MICHIGAN CITY    1700            72  350/ 16/ 19   N/A
$$

ABBREVIATIONS USED IN REMARKS
   TC - TEMPERATURE IN CELSIUS
  WCI - WIND CHILL INDEX
   HX - HEAT INDEX
  VSB - VISIBILITY
$$




USA.gov is the U.S. government's official web portal to all federal, state and local government web resources and services.